TimeAST,TemperatureF,Dew PointF,Humidity,Sea Level PressureIn,VisibilityMPH,Wind Direction,Wind SpeedMPH,Gust SpeedMPH,PrecipitationIn,Events,Conditions,WindDirDegrees,DateUTC
12:00 AM,-9999,-9999,N/A,29.95,-9999.0,Calm,Calm,-,N/A,,Unknown,0,2012-10-30 04:00:00
1:00 AM,-9999,-9999,N/A,29.92,-9999.0,Variable,1.2,-,N/A,,Unknown,0,2012-10-30 05:00:00
2:00 AM,,,,,,SSE,2.3,,,,Clear,150,2012-10-30 06:00:00
2:00 AM,-9999,-9999,N/A,29.92,-9999.0,Variable,1.2,-,N/A,,Unknown,0,2012-10-30 06:00:00
3:00 AM,-9999,-9999,N/A,29.92,-9999.0,Variable,1.2,-,N/A,,Unknown,0,2012-10-30 07:00:00
4:00 AM,-9999,-9999,N/A,29.92,-9999.0,Calm,Calm,-,N/A,,Unknown,0,2012-10-30 08:00:00
5:00 AM,,32,,,,Calm,Calm,,,,Clear,,2012-10-30 09:00:00
5:00 AM,-9999,-9999,N/A,29.92,-9999.0,Calm,Calm,-,N/A,,Unknown,0,2012-10-30 09:00:00
6:00 AM,-9999,-9999,N/A,29.95,-9999.0,Calm,Calm,-,N/A,,Unknown,0,2012-10-30 10:00:00
7:00 AM,-9999,-9999,N/A,29.98,6.2,Variable,1.2,-,N/A,,Partly Cloudy,0,2012-10-30 11:00:00
8:00 AM,,32,,,6,ESE,4.6,,,,Scattered Clouds,110,2012-10-30 12:00:00
8:00 AM,-9999,-9999,N/A,29.98,6.2,ESE,4.6,-,N/A,,Partly Cloudy,110,2012-10-30 12:00:00
9:00 AM,-9999,-9999,N/A,30.01,6.2,East,5.8,-,N/A,,Partly Cloudy,90,2012-10-30 13:00:00
10:00 AM,-9999,-9999,N/A,30.01,6.2,East,6.9,-,N/A,,Partly Cloudy,90,2012-10-30 14:00:00
11:00 AM,,32,,,6,East,6.9,,,,Clear,100,2012-10-30 15:00:00
11:00 AM,-9999,-9999,N/A,30.01,-9999.0,East,6.9,-,N/A,,Unknown,100,2012-10-30 15:00:00
12:00 PM,-9999,-9999,N/A,29.98,6.2,ENE,9.2,-,N/A,,Partly Cloudy,60,2012-10-30 16:00:00
1:00 PM,-9999,-9999,N/A,29.95,6.2,ENE,8.1,-,N/A,,Partly Cloudy,70,2012-10-30 17:00:00
2:00 PM,,32,,,16,ENE,6.9,,,,Scattered Clouds,60,2012-10-30 18:00:00
2:00 PM,-9999,-9999,N/A,29.95,6.2,ENE,6.9,-,N/A,,Partly Cloudy,60,2012-10-30 18:00:00
3:00 PM,-9999,-9999,N/A,29.92,-9999.0,ENE,6.9,-,N/A,,Unknown,70,2012-10-30 19:00:00
4:00 PM,-9999,-9999,N/A,29.95,-9999.0,ENE,5.8,-,N/A,,Unknown,60,2012-10-30 20:00:00
5:00 PM,,,,,16,East,4.6,,,,Scattered Clouds,80,2012-10-30 21:00:00
5:00 PM,-9999,-9999,N/A,29.95,6.2,ENE,4.6,-,N/A,,Partly Cloudy,70,2012-10-30 21:00:00
6:00 PM,-9999,-9999,N/A,29.95,6.2,ENE,3.5,-,N/A,,Partly Cloudy,60,2012-10-30 22:00:00
7:00 PM,-9999,-9999,N/A,29.98,6.2,Variable,1.2,-,N/A,,Unknown,0,2012-10-30 23:00:00
8:00 PM,-9999,-9999,N/A,29.98,-9999.0,Variable,2.3,-,N/A,,Unknown,0,2012-10-31 00:00:00
9:00 PM,-9999,-9999,N/A,30.01,-9999.0,ENE,4.6,-,N/A,,Unknown,60,2012-10-31 01:00:00
10:00 PM,-9999,-9999,N/A,30.01,-9999.0,NE,5.8,-,N/A,,Unknown,50,2012-10-31 02:00:00
11:00 PM,,32,,,,NE,4.6,,,,Clear,50,2012-10-31 03:00:00
11:00 PM,-9999,-9999,N/A,30.01,-9999.0,NE,4.6,-,N/A,,Unknown,50,2012-10-31 03:00:00